Time,TemperatureF,DewpointF,PressureIn,WindDirection,WindDirectionDegrees,WindSpeedMPH,WindSpeedGustMPH,Humidity,HourlyPrecipIn,Conditions,Clouds,dailyrainin,SoftwareType,DateUTC
2013-01-22 00:02:00,53.0,-2.0,-100.00,NE,46,16.0,25.0,10,-99.99,,,-99.99,,2013-01-22 08:02:00,
2013-01-22 00:11:00,53.0,-2.0,-100.00,NE,46,16.0,22.0,10,-99.99,,,-99.99,,2013-01-22 08:11:00,
2013-01-22 00:22:00,53.0,-2.0,-100.00,NE,47,15.0,23.0,10,-99.99,,,-99.99,,2013-01-22 08:22:00,
2013-01-22 00:32:00,53.0,-2.0,-100.00,NE,46,17.0,24.0,10,-99.99,,,-99.99,,2013-01-22 08:32:00,
2013-01-22 00:42:00,53.0,-2.0,-100.00,NE,48,16.0,23.0,10,-99.99,,,-99.99,,2013-01-22 08:42:00,
2013-01-22 00:52:00,52.0,-3.0,-100.00,NE,38,14.0,21.0,10,-99.99,,,-99.99,,2013-01-22 08:52:00,
2013-01-22 01:02:00,52.0,-3.0,-100.00,NE,39,14.0,23.0,10,-99.99,,,-99.99,,2013-01-22 09:02:00,
2013-01-22 01:11:00,52.0,-1.0,-100.00,NE,41,15.0,25.0,11,-99.99,,,-99.99,,2013-01-22 09:11:00,
2013-01-22 01:22:00,52.0,-1.0,-100.00,NE,42,14.0,22.0,11,-99.99,,,-99.99,,2013-01-22 09:22:00,
2013-01-22 01:32:00,52.0,-1.0,-100.00,NE,38,16.0,26.0,11,-99.99,,,-99.99,,2013-01-22 09:32:00,
2013-01-22 01:42:00,53.0,0.0,-100.00,NE,41,17.0,24.0,11,-99.99,,,-99.99,,2013-01-22 09:42:00,
2013-01-22 01:52:00,53.0,-2.0,-100.00,NE,44,17.0,23.0,10,-99.99,,,-99.99,,2013-01-22 09:52:00,
2013-01-22 02:02:00,53.0,-2.0,-100.00,NE,39,16.0,25.0,10,-99.99,,,-99.99,,2013-01-22 10:02:00,
2013-01-22 02:11:00,52.0,-3.0,-100.00,NE,36,15.0,25.0,10,-99.99,,,-99.99,,2013-01-22 10:11:00,
2013-01-22 02:22:00,52.0,-3.0,-100.00,NE,37,16.0,24.0,10,-99.99,,,-99.99,,2013-01-22 10:22:00,
2013-01-22 02:32:00,53.0,-2.0,-100.00,NE,45,18.0,26.0,10,-99.99,,,-99.99,,2013-01-22 10:32:00,
2013-01-22 02:42:00,52.0,-3.0,-100.00,NE,43,18.0,26.0,10,-99.99,,,-99.99,,2013-01-22 10:42:00,
2013-01-22 02:52:00,52.0,-3.0,-100.00,NE,42,17.0,24.0,10,-99.99,,,-99.99,,2013-01-22 10:52:00,
2013-01-22 03:02:00,52.0,-3.0,-100.00,NE,42,17.0,24.0,10,-99.99,,,-99.99,,2013-01-22 11:02:00,
2013-01-22 03:12:00,52.0,-3.0,-100.00,NE,46,19.0,27.0,10,-99.99,,,-99.99,,2013-01-22 11:12:00,
2013-01-22 03:22:00,52.0,-3.0,-100.00,NE,47,19.0,28.0,10,-99.99,,,-99.99,,2013-01-22 11:22:00,
2013-01-22 03:32:00,53.0,-2.0,-100.00,NE,49,21.0,29.0,10,-99.99,,,-99.99,,2013-01-22 11:32:00,
2013-01-22 03:42:00,53.0,-2.0,-100.00,NE,47,20.0,27.0,10,-99.99,,,-99.99,,2013-01-22 11:42:00,
2013-01-22 03:52:00,53.0,-2.0,-100.00,NE,47,20.0,26.0,10,-99.99,,,-99.99,,2013-01-22 11:52:00,
2013-01-22 04:02:00,52.0,-3.0,-100.00,NE,46,17.0,26.0,10,-99.99,,,-99.99,,2013-01-22 12:02:00,
2013-01-22 04:12:00,52.0,-3.0,-100.00,NE,42,17.0,25.0,10,-99.99,,,-99.99,,2013-01-22 12:12:00,
2013-01-22 04:22:00,52.0,-3.0,-100.00,NE,37,16.0,24.0,10,-99.99,,,-99.99,,2013-01-22 12:22:00,
2013-01-22 04:32:00,52.0,-3.0,-100.00,NE,36,16.0,25.0,10,-99.99,,,-99.99,,2013-01-22 12:32:00,
2013-01-22 04:42:00,52.0,-3.0,-100.00,NE,38,16.0,24.0,10,-99.99,,,-99.99,,2013-01-22 12:42:00,
2013-01-22 04:52:00,52.0,-3.0,-100.00,NE,37,16.0,28.0,10,-99.99,,,-99.99,,2013-01-22 12:52:00,
2013-01-22 05:03:00,53.0,-2.0,-100.00,NE,41,17.0,27.0,10,-99.99,,,-99.99,,2013-01-22 13:03:00,
2013-01-22 05:13:00,53.0,-2.0,-100.00,NE,46,17.0,25.0,10,-99.99,,,-99.99,,2013-01-22 13:13:00,
2013-01-22 05:22:00,53.0,-2.0,-100.00,NE,47,18.0,26.0,10,-99.99,,,-99.99,,2013-01-22 13:22:00,
2013-01-22 05:33:00,52.0,-3.0,-100.00,NE,42,17.0,25.0,10,-99.99,,,-99.99,,2013-01-22 13:33:00,
2013-01-22 05:42:00,52.0,-3.0,-100.00,NE,41,18.0,28.0,10,-99.99,,,-99.99,,2013-01-22 13:42:00,
2013-01-22 05:53:00,52.0,-3.0,-100.00,NE,47,18.0,26.0,10,-99.99,,,-99.99,,2013-01-22 13:53:00,
2013-01-22 06:02:00,52.0,-3.0,-100.00,NE,47,18.0,26.0,10,-99.99,,,-99.99,,2013-01-22 14:02:00,
2013-01-22 06:12:00,52.0,-3.0,-100.00,NE,51,19.0,27.0,10,-99.99,,,-99.99,,2013-01-22 14:12:00,
2013-01-22 06:22:00,52.0,-3.0,-100.00,NE,54,19.0,26.0,10,-99.99,,,-99.99,,2013-01-22 14:22:00,
2013-01-22 06:33:00,52.0,-3.0,-100.00,NE,54,19.0,25.0,10,-99.99,,,-99.99,,2013-01-22 14:33:00,
2013-01-22 06:43:00,52.0,-3.0,-100.00,NE,52,20.0,26.0,10,-99.99,,,-99.99,,2013-01-22 14:43:00,
2013-01-22 06:53:00,52.0,-3.0,-100.00,NE,49,18.0,25.0,10,-99.99,,,-99.99,,2013-01-22 14:53:00,
2013-01-22 07:03:00,52.0,-3.0,-100.00,NE,45,17.0,23.0,10,-99.99,,,-99.99,,2013-01-22 15:03:00,
2013-01-22 07:12:00,52.0,-3.0,-100.00,NE,47,17.0,24.0,10,-99.99,,,-99.99,,2013-01-22 15:12:00,
2013-01-22 07:22:00,52.0,-3.0,-100.00,NE,48,17.0,25.0,10,-99.99,,,-99.99,,2013-01-22 15:22:00,
2013-01-22 07:33:00,52.0,-3.0,-100.00,NE,49,19.0,27.0,10,-99.99,,,-99.99,,2013-01-22 15:33:00,
2013-01-22 07:43:00,52.0,-3.0,-100.00,NE,48,19.0,27.0,10,-99.99,,,-99.99,,2013-01-22 15:43:00,
2013-01-22 07:52:00,52.0,-3.0,-100.00,NE,51,17.0,26.0,10,-99.99,,,-99.99,,2013-01-22 15:52:00,
2013-01-22 08:03:00,53.0,-2.0,-100.00,NE,55,17.0,27.0,10,-99.99,,,-99.99,,2013-01-22 16:03:00,
2013-01-22 08:12:00,53.0,-2.0,-100.00,NE,50,22.0,31.0,10,-99.99,,,-99.99,,2013-01-22 16:12:00,
2013-01-22 08:23:00,53.0,-2.0,-100.00,NE,55,20.0,29.0,10,-99.99,,,-99.99,,2013-01-22 16:23:00,
2013-01-22 08:33:00,54.0,-1.0,-100.00,NE,55,19.0,27.0,10,-99.99,,,-99.99,,2013-01-22 16:33:00,
2013-01-22 08:42:00,54.0,-1.0,-100.00,NE,55,19.0,26.0,10,-99.99,,,-99.99,,2013-01-22 16:42:00,
2013-01-22 08:53:00,55.0,1.0,-100.00,NE,52,18.0,25.0,11,-99.99,,,-99.99,,2013-01-22 16:53:00,
2013-01-22 09:03:00,55.0,1.0,-100.00,NE,52,18.0,25.0,11,-99.99,,,-99.99,,2013-01-22 17:03:00,
2013-01-22 09:12:00,55.0,1.0,-100.00,NE,53,18.0,26.0,11,-99.99,,,-99.99,,2013-01-22 17:12:00,
2013-01-22 09:23:00,56.0,0.0,-100.00,ENE,58,20.0,27.0,10,-99.99,,,-99.99,,2013-01-22 17:23:00,
2013-01-22 09:33:00,56.0,0.0,-100.00,ENE,58,19.0,26.0,10,-99.99,,,-99.99,,2013-01-22 17:33:00,
2013-01-22 09:43:00,57.0,1.0,-100.00,NE,55,17.0,24.0,10,-99.99,,,-99.99,,2013-01-22 17:43:00,
2013-01-22 09:53:00,57.0,1.0,-100.00,NE,56,17.0,25.0,10,-99.99,,,-99.99,,2013-01-22 17:53:00,
2013-01-22 10:03:00,58.0,2.0,-100.00,NE,52,18.0,23.0,10,-99.99,,,-99.99,,2013-01-22 18:03:00,
2013-01-22 10:12:00,58.0,2.0,-100.00,NE,53,18.0,26.0,10,-99.99,,,-99.99,,2013-01-22 18:12:00,
2013-01-22 10:23:00,58.0,2.0,-100.00,ENE,60,18.0,24.0,10,-99.99,,,-99.99,,2013-01-22 18:23:00,
2013-01-22 10:33:00,59.0,3.0,-100.00,ENE,59,18.0,24.0,10,-99.99,,,-99.99,,2013-01-22 18:33:00,
2013-01-22 10:42:00,59.0,3.0,-100.00,ENE,57,17.0,22.0,10,-99.99,,,-99.99,,2013-01-22 18:42:00,
2013-01-22 10:53:00,60.0,1.0,-100.00,ENE,62,17.0,25.0,9,-99.99,,,-99.99,,2013-01-22 18:53:00,
2013-01-22 11:03:00,60.0,1.0,-100.00,ENE,62,17.0,25.0,9,-99.99,,,-99.99,,2013-01-22 19:03:00,
2013-01-22 11:13:00,61.0,2.0,-100.00,ENE,66,14.0,21.0,9,-99.99,,,-99.99,,2013-01-22 19:13:00,
2013-01-22 11:23:00,61.0,2.0,-100.00,ENE,63,15.0,25.0,9,-99.99,,,-99.99,,2013-01-22 19:23:00,
2013-01-22 11:33:00,62.0,3.0,-100.00,ENE,63,14.0,22.0,9,-99.99,,,-99.99,,2013-01-22 19:33:00,
2013-01-22 11:43:00,62.0,3.0,-100.00,ENE,60,13.0,19.0,9,-99.99,,,-99.99,,2013-01-22 19:43:00,
2013-01-22 11:53:00,63.0,3.0,-100.00,ENE,60,14.0,21.0,9,-99.99,,,-99.99,,2013-01-22 19:53:00,
2013-01-22 12:02:00,63.0,3.0,-100.00,ENE,60,13.0,21.0,9,-99.99,,,-99.99,,2013-01-22 20:02:00,
2013-01-22 12:12:00,62.0,3.0,-100.00,ENE,59,15.0,21.0,9,-99.99,,,-99.99,,2013-01-22 20:12:00,
2013-01-22 12:22:00,62.0,3.0,-100.00,ENE,63,16.0,22.0,9,-99.99,,,-99.99,,2013-01-22 20:22:00,
2013-01-22 12:33:00,63.0,3.0,-100.00,ENE,65,15.0,19.0,9,-99.99,,,-99.99,,2013-01-22 20:33:00,
2013-01-22 12:42:00,64.0,4.0,-100.00,ENE,61,15.0,21.0,9,-99.99,,,-99.99,,2013-01-22 20:42:00,
2013-01-22 12:53:00,63.0,3.0,-100.00,ENE,60,16.0,22.0,9,-99.99,,,-99.99,,2013-01-22 20:53:00,
2013-01-22 13:02:00,63.0,3.0,-100.00,ENE,60,16.0,23.0,9,-99.99,,,-99.99,,2013-01-22 21:02:00,
2013-01-22 13:12:00,63.0,6.0,-100.00,ENE,62,16.0,22.0,10,-99.99,,,-99.99,,2013-01-22 21:12:00,
2013-01-22 13:22:00,64.0,6.0,-100.00,NE,52,15.0,23.0,10,-99.99,,,-99.99,,2013-01-22 21:22:00,
2013-01-22 13:33:00,63.0,6.0,-100.00,ENE,62,16.0,22.0,10,-99.99,,,-99.99,,2013-01-22 21:33:00,
2013-01-22 13:42:00,63.0,6.0,-100.00,ENE,57,15.0,22.0,10,-99.99,,,-99.99,,2013-01-22 21:42:00,
2013-01-22 13:52:00,63.0,6.0,-100.00,ENE,59,14.0,20.0,10,-99.99,,,-99.99,,2013-01-22 21:52:00,
2013-01-22 14:02:00,63.0,6.0,-100.00,NE,53,14.0,20.0,10,-99.99,,,-99.99,,2013-01-22 22:02:00,
2013-01-22 14:12:00,63.0,6.0,-100.00,ENE,57,14.0,19.0,10,-99.99,,,-99.99,,2013-01-22 22:12:00,
2013-01-22 14:22:00,63.0,6.0,-100.00,NE,56,14.0,19.0,10,-99.99,,,-99.99,,2013-01-22 22:22:00,
2013-01-22 14:32:00,64.0,6.0,-100.00,ENE,61,13.0,19.0,10,-99.99,,,-99.99,,2013-01-22 22:32:00,
2013-01-22 14:42:00,64.0,6.0,-100.00,NE,56,13.0,17.0,10,-99.99,,,-99.99,,2013-01-22 22:42:00,
2013-01-22 14:52:00,65.0,9.0,-100.00,NE,53,12.0,17.0,11,-99.99,,,-99.99,,2013-01-22 22:52:00,
2013-01-22 15:02:00,64.0,8.0,-100.00,ENE,65,12.0,16.0,11,-99.99,,,-99.99,,2013-01-22 23:02:00,
2013-01-22 15:10:00,64.0,8.0,-100.00,NE,56,10.0,15.0,11,-99.99,,,-99.99,,2013-01-22 23:10:00,
2013-01-22 15:12:00,65.0,9.0,-100.00,NE,56,11.0,15.0,11,-99.99,,,-99.99,,2013-01-22 23:12:00,
2013-01-22 15:22:00,65.0,9.0,-100.00,ENE,59,11.0,15.0,11,-99.99,,,-99.99,,2013-01-22 23:22:00,
2013-01-22 15:32:00,64.0,8.0,-100.00,NE,56,12.0,15.0,11,-99.99,,,-99.99,,2013-01-22 23:32:00,
2013-01-22 15:42:00,64.0,8.0,-100.00,NE,56,10.0,15.0,11,-99.99,,,-99.99,,2013-01-22 23:42:00,
2013-01-22 15:52:00,64.0,8.0,-100.00,NE,56,10.0,15.0,11,-99.99,,,-99.99,,2013-01-22 23:52:00,
2013-01-22 16:02:00,64.0,8.0,-100.00,NE,56,10.0,15.0,11,-99.99,,,-99.99,,2013-01-23 00:02:00,
2013-01-22 17:33:00,57.0,7.0,-100.00,NE,54,9.0,12.0,13,-99.99,,,-99.99,,2013-01-23 01:33:00,
2013-01-22 17:43:00,57.0,7.0,-100.00,NE,49,8.0,11.0,13,-99.99,,,-99.99,,2013-01-23 01:43:00,
2013-01-22 17:52:00,56.0,6.0,-100.00,NE,46,7.0,11.0,13,-99.99,,,-99.99,,2013-01-23 01:52:00,
2013-01-22 18:03:00,56.0,6.0,-100.00,NE,50,6.0,9.0,13,-99.99,,,-99.99,,2013-01-23 02:03:00,
2013-01-22 18:12:00,57.0,7.0,-100.00,NE,44,7.0,9.0,13,-99.99,,,-99.99,,2013-01-23 02:12:00,
2013-01-22 18:22:00,57.0,8.0,-100.00,NE,47,6.0,9.0,14,-99.99,,,-99.99,,2013-01-23 02:22:00,
2013-01-22 18:32:00,57.0,8.0,-100.00,NE,49,6.0,8.0,14,-99.99,,,-99.99,,2013-01-23 02:32:00,
2013-01-22 18:42:00,57.0,8.0,-100.00,NE,51,5.0,6.0,14,-99.99,,,-99.99,,2013-01-23 02:42:00,
2013-01-22 18:53:00,56.0,7.0,-100.00,NE,51,7.0,9.0,14,-99.99,,,-99.99,,2013-01-23 02:53:00,
2013-01-22 19:02:00,56.0,9.0,-100.00,NE,54,7.0,9.0,15,-99.99,,,-99.99,,2013-01-23 03:02:00,
2013-01-22 19:12:00,56.0,9.0,-100.00,NE,49,7.0,9.0,15,-99.99,,,-99.99,,2013-01-23 03:12:00,
2013-01-22 19:22:00,56.0,9.0,-100.00,NE,50,5.0,7.0,15,-99.99,,,-99.99,,2013-01-23 03:22:00,
2013-01-22 19:32:00,57.0,10.0,-100.00,NE,55,5.0,7.0,15,-99.99,,,-99.99,,2013-01-23 03:32:00,
2013-01-22 19:52:00,58.0,9.0,-100.00,NE,56,5.0,5.0,14,-99.99,,,-99.99,,2013-01-23 03:52:00,
2013-01-22 20:02:00,58.0,9.0,-100.00,NE,46,5.0,7.0,14,-99.99,,,-99.99,,2013-01-23 04:02:00,
2013-01-22 20:12:00,58.0,9.0,-100.00,NE,47,5.0,6.0,14,-99.99,,,-99.99,,2013-01-23 04:12:00,
2013-01-22 20:22:00,60.0,11.0,-100.00,ENE,57,4.0,5.0,14,-99.99,,,-99.99,,2013-01-23 04:22:00,
2013-01-22 20:32:00,61.0,8.0,-100.00,ENE,74,2.0,2.0,12,-99.99,,,-99.99,,2013-01-23 04:32:00,
2013-01-22 20:52:00,61.0,10.0,-100.00,ENE,64,3.0,3.0,13,-99.99,,,-99.99,,2013-01-23 04:52:00,
2013-01-22 21:03:00,61.0,13.0,-100.00,East,84,2.0,3.0,15,-99.99,,,-99.99,,2013-01-23 05:03:00,
2013-01-22 21:12:00,61.0,14.0,-100.00,ENE,74,2.0,3.0,16,-99.99,,,-99.99,,2013-01-23 05:12:00,
2013-01-22 21:22:00,61.0,16.0,-100.00,ENE,64,3.0,4.0,17,-99.99,,,-99.99,,2013-01-23 05:22:00,
2013-01-22 21:33:00,60.0,16.0,-100.00,ENE,69,2.0,3.0,18,-99.99,,,-99.99,,2013-01-23 05:33:00,
2013-01-22 21:52:00,60.0,16.0,-100.00,East,87,2.0,3.0,18,-99.99,,,-99.99,,2013-01-23 05:52:00,
2013-01-22 22:02:00,60.0,16.0,-100.00,ESE,107,3.0,3.0,18,-99.99,,,-99.99,,2013-01-23 06:02:00,
2013-01-22 22:12:00,60.0,18.0,-100.00,ESE,109,3.0,4.0,19,-99.99,,,-99.99,,2013-01-23 06:12:00,
2013-01-22 22:22:00,59.0,17.0,-100.00,East,99,3.0,5.0,19,-99.99,,,-99.99,,2013-01-23 06:22:00,
2013-01-22 22:32:00,60.0,18.0,-100.00,ESE,102,4.0,5.0,19,-99.99,,,-99.99,,2013-01-23 06:32:00,
2013-01-22 22:42:00,59.0,18.0,-100.00,ESE,104,3.0,4.0,20,-99.99,,,-99.99,,2013-01-23 06:42:00,
2013-01-22 22:52:00,60.0,20.0,-100.00,East,93,3.0,3.0,21,-99.99,,,-99.99,,2013-01-23 06:52:00,
2013-01-22 23:02:00,60.0,20.0,-100.00,East,92,3.0,3.0,21,-99.99,,,-99.99,,2013-01-23 07:02:00,
2013-01-22 23:12:00,60.0,21.0,-100.00,ENE,77,3.0,4.0,22,-99.99,,,-99.99,,2013-01-23 07:12:00,
2013-01-22 23:22:00,60.0,21.0,-100.00,ENE,76,4.0,4.0,22,-99.99,,,-99.99,,2013-01-23 07:22:00,
2013-01-22 23:32:00,59.0,21.0,-100.00,ENE,66,4.0,5.0,23,-99.99,,,-99.99,,2013-01-23 07:32:00,
2013-01-22 23:52:00,58.0,21.0,-100.00,NE,52,5.0,8.0,24,-99.99,,,-99.99,,2013-01-23 07:52:00,